TimeEDT,TemperatureF,Dew PointF,Humidity,Sea Level PressureIn,VisibilityMPH,Wind Direction,Wind SpeedMPH,Gust SpeedMPH,PrecipitationIn,Events,Conditions,WindDirDegrees,DateUTC
12:53 AM,75.0,70.0,84,30.04,10.0,South,4.6,-,N/A,,Clear,180,2013-08-01 04:53:00
1:53 AM,75.0,71.1,87,30.03,10.0,SSW,4.6,-,0.00,,Partly Cloudy,210,2013-08-01 05:53:00
2:53 AM,75.0,71.1,87,30.00,10.0,Calm,Calm,-,N/A,,Clear,0,2013-08-01 06:53:00
3:53 AM,75.0,71.1,87,29.99,10.0,Calm,Calm,-,N/A,,Clear,0,2013-08-01 07:53:00
4:53 AM,75.0,71.1,87,30.00,10.0,Calm,Calm,-,N/A,,Clear,0,2013-08-01 08:53:00
5:53 AM,75.0,71.1,87,30.00,10.0,SW,3.5,-,N/A,,Clear,220,2013-08-01 09:53:00
6:53 AM,75.9,71.1,85,30.02,10.0,SSW,4.6,-,N/A,,Clear,210,2013-08-01 10:53:00
7:53 AM,77.0,71.1,82,30.02,10.0,South,3.5,-,N/A,,Clear,190,2013-08-01 11:53:00
8:53 AM,78.1,72.0,81,30.03,10.0,SSW,4.6,-,N/A,,Clear,210,2013-08-01 12:53:00
9:53 AM,81.0,73.0,77,30.04,10.0,WSW,8.1,-,N/A,,Clear,250,2013-08-01 13:53:00
10:53 AM,84.9,73.0,67,30.04,10.0,SW,6.9,-,N/A,,Partly Cloudy,220,2013-08-01 14:53:00
11:53 AM,88.0,73.0,61,30.02,10.0,West,6.9,-,N/A,,Scattered Clouds,260,2013-08-01 15:53:00
12:53 PM,88.0,73.9,63,30.00,10.0,NW,5.8,-,0.00,,Scattered Clouds,310,2013-08-01 16:53:00
1:53 PM,91.0,72.0,53,29.99,10.0,WSW,4.6,-,N/A,,Partly Cloudy,250,2013-08-01 17:53:00
2:53 PM,88.0,75.0,65,29.97,10.0,SE,11.5,-,N/A,,Mostly Cloudy,130,2013-08-01 18:53:00
3:46 PM,87.8,73.4,62,29.95,10.0,ESE,11.5,16.1,N/A,Thunderstorm,Thunderstorm,110,2013-08-01 19:46:00
3:53 PM,87.1,73.0,63,29.95,10.0,East,12.7,-,N/A,Thunderstorm,Thunderstorm,100,2013-08-01 19:53:00
4:16 PM,80.6,71.6,74,30.06,4.0,West,21.9,27.6,0.11,Rain-Thunderstorm,Heavy Thunderstorms and Rain,270,2013-08-01 20:16:00
4:18 PM,78.8,71.6,78,30.07,2.0,West,19.6,27.6,0.28,Rain-Thunderstorm,Heavy Thunderstorms and Rain,270,2013-08-01 20:18:00
4:24 PM,75.2,71.6,89,30.07,1.0,North,17.3,27.6,0.79,Rain-Thunderstorm,Heavy Thunderstorms and Rain,350,2013-08-01 20:24:00
4:27 PM,75.2,71.6,89,30.07,0.8,North,12.7,24.2,1.08,Rain-Thunderstorm,Heavy Thunderstorms and Rain,350,2013-08-01 20:27:00
4:44 PM,75.2,71.6,89,30.04,1.2,South,9.2,-,2.03,Rain-Thunderstorm,Heavy Thunderstorms and Rain,190,2013-08-01 20:44:00
4:50 PM,73.4,69.8,88,30.04,2.0,SW,9.2,-,2.18,Rain-Thunderstorm,Heavy Thunderstorms and Rain,220,2013-08-01 20:50:00
4:53 PM,73.0,70.0,90,30.04,2.0,SSW,8.1,-,2.25,Rain-Thunderstorm,Heavy Thunderstorms and Rain,210,2013-08-01 20:53:00
5:04 PM,73.4,69.8,88,30.03,3.0,South,6.9,-,0.18,Rain-Thunderstorm,Heavy Thunderstorms and Rain,180,2013-08-01 21:04:00
5:26 PM,73.4,69.8,88,30.01,10.0,Calm,Calm,-,0.25,Rain,Light Rain,0,2013-08-01 21:26:00
5:53 PM,73.9,70.0,87,30.01,10.0,Calm,Calm,-,0.31,,Mostly Cloudy,0,2013-08-01 21:53:00
6:53 PM,75.9,71.1,85,29.99,10.0,Calm,Calm,-,0.00,Rain,Light Rain,0,2013-08-01 22:53:00
7:53 PM,75.9,71.1,85,29.99,10.0,South,3.5,-,0.00,,Clear,180,2013-08-01 23:53:00
8:53 PM,75.9,71.1,85,29.99,10.0,South,3.5,-,N/A,,Clear,190,2013-08-02 00:53:00
9:53 PM,75.9,72.0,87,29.99,10.0,South,4.6,-,N/A,,Clear,190,2013-08-02 01:53:00
10:53 PM,75.9,72.0,87,30.00,10.0,South,4.6,-,N/A,,Clear,190,2013-08-02 02:53:00
11:53 PM,75.0,71.1,87,30.01,10.0,SSE,5.8,-,N/A,,Clear,160,2013-08-02 03:53:00